Campbell Airport

Jump to: basic info | weather | frequencies | runways | comments

Related pages: nearby airports | nearby navaids | notams | map

Basic information (top)

Codes: KC81 C81
Location: lon 42.324600, lat -88.074097, elev 788 ft / 240 m msl
Status: small_airport
Scheduled airline service: no
Links: Wikipedia Mobile

Weather (top)

Current conditions for Waukegan Regional Airport 11nm (20km) ENE (rec'd 2014/11/26 05:55Z):

KUGN 260555Z 00000KT 6SM BR CLR M11/M12 A3018 RMK AO2 SLP239 I1000 I6000 T11061117 11061 21106 410281106 50003

Airport forecast for Kenosha Regional Airport 18nm (32km) NNE (rec'd 2014/11/26 06:33Z):

TAF KENW 260530Z 2606/2706 18003KT 6SM BR SCT015 
      TEMPO 2606/2609 4SM BR 
     FM260900 17003KT 4SM BR SCT015 
     FM261400 15004KT P6SM SCT012 
     FM261600 15006KT P6SM BKN015 
     FM270100 03004KT P6SM OVC020 
     FM270500 30004KT P6SM OVC025

Frequencies (top)

Verify before use: may be inaccurate or out of date.

A/D: 120.55 MHz (CHICAGO APP/DEP)
UNIC: 122.7 MHz (CTAF/UNICOM)

Runways (top)

06/24: 3,573 x 40 ft (1,089 x 12 m) — other (COP) — not lighted — threshold 24 displaced 301 ft (92 m)

09/27: 3,270 x 40 ft (997 x 12 m) — paved — lighted

Latest comments (top)

My aviation birthplace.: I did my Private Pilot training here. [read]

More... (top)

See also NOTAMs and nearby airports and navaids, or visit the Campbell Airport page at the main OurAirports website..